| time (UTC) | temp F | wind direction | speed MPH | gust MPH | rain 1hr in | rain 24hr in | rain mn in | humidity % | barometer mb |
| 20260903055007 | 69 | 339 | 2.0 | 3.0 | 0.00 | 0.00 | 0.00 | 98 | 981.7 |
| 20260903053425 | 69 | 333 | 2.0 | 2.0 | 0.00 | 0.00 | 0.00 | 98 | 981.6 |
| 20260903052924 | 69 | 133 | 2.0 | 3.0 | 0.00 | 0.00 | 0.00 | 97 | 981.5 |
| 20260903052424 | 69 | 147 | 3.0 | 3.0 | 0.00 | 0.00 | 0.00 | 98 | 981.5 |
| 20260903051924 | 69 | 134 | 2.0 | 3.0 | 0.00 | 0.00 | 0.00 | 97 | 981.4 |
| 20260903051424 | 69 | 180 | 2.0 | 3.0 | 0.00 | 0.00 | 0.00 | 97 | 981.5 |
| 20260903050924 | 69 | 101 | 1.0 | 2.0 | 0.00 | 0.00 | 0.00 | 97 | 981.4 |
| 20260903050423 | 69 | 345 | 1.0 | 3.0 | 0.00 | 0.00 | 0.00 | 97 | 981.4 |
| 20260903045402 | 69 | 134 | 2.0 | 4.0 | 0.00 | 0.00 | 0.00 | 97 | 981.3 |
| 20260903044902 | 69 | 124 | 2.0 | 3.0 | 0.00 | 0.00 | 0.00 | 97 | 981.5 |
| 20260903044402 | 69 | 0 | 0.0 | 0.0 | 0.00 | 0.00 | 0.00 | 97 | 981.4 |
| 20260903043340 | 69 | 133 | 1.0 | 3.0 | 0.00 | 0.00 | 0.00 | 97 | 980.9 |
| 20260903042840 | 69 | 333 | 1.0 | 1.0 | 0.00 | 0.00 | 0.00 | 97 | 980.8 |
| 20260903041818 | 69 | 328 | 1.0 | 1.0 | 0.00 | 0.00 | 0.00 | 97 | 980.6 |
| 20260903041317 | 69 | 341 | 1.0 | 2.0 | 0.00 | 0.00 | 0.00 | 97 | 980.4 |
| 20260903040256 | 69 | 83 | 2.0 | 2.0 | 0.00 | 0.00 | 0.00 | 97 | 980.6 |
| 20260903035756 | 69 | 127 | 2.0 | 4.0 | 0.00 | 0.00 | 0.00 | 97 | 980.7 |
| 20260903035255 | 69 | 313 | 2.0 | 3.0 | 0.00 | 0.00 | 0.00 | 97 | 980.3 |
| 20260903034755 | 69 | 95 | 2.0 | 2.0 | 0.00 | 0.00 | 0.00 | 97 | 980.2 |
| 20260903034255 | 69 | 291 | 1.0 | 2.0 | 0.00 | 0.00 | 0.00 | 97 | 980.2 |
| 20260903033755 | 69 | 358 | 2.0 | 2.0 | 0.00 | 0.00 | 0.00 | 97 | 980.0 |
| 20260903033254 | 69 | 340 | 2.0 | 3.0 | 0.00 | 0.00 | 0.00 | 97 | 980.0 |
| 20260903032754 | 69 | 101 | 1.0 | 2.0 | 0.00 | 0.00 | 0.00 | 97 | 980.0 |
| 20260903032254 | 69 | 331 | 1.0 | 1.0 | 0.00 | 0.00 | 0.00 | 97 | 980.1 |
| 20260903031754 | 69 | 339 | 1.0 | 1.0 | 0.00 | 0.00 | 0.00 | 97 | 980.2 |
| 20260903031254 | 69 | 140 | 3.0 | 4.0 | 0.00 | 0.00 | 0.00 | 96 | 980.3 |
| 20260903030753 | 69 | 124 | 1.0 | 2.0 | 0.00 | 0.00 | 0.00 | 96 | 980.7 |
| 20260903030253 | 69 | 319 | 1.0 | 2.0 | 0.00 | 0.00 | 0.00 | 96 | 980.6 |
| 20260903025753 | 69 | 326 | 1.0 | 1.0 | 0.00 | 0.00 | 0.00 | 96 | 980.7 |
| 20260903025253 | 69 | 324 | 1.0 | 3.0 | 0.00 | 0.00 | 0.00 | 96 | 980.6 |
| 20260903024752 | 69 | 329 | 1.0 | 1.0 | 0.00 | 0.00 | 0.00 | 96 | 980.6 |
| 20260903024252 | 69 | 318 | 2.0 | 2.0 | 0.00 | 0.00 | 0.00 | 95 | 980.6 |
| 20260903023752 | 69 | 146 | 3.0 | 5.0 | 0.00 | 0.00 | 0.00 | 95 | 981.1 |
| 20260903023252 | 69 | 301 | 2.0 | 4.0 | 0.00 | 0.00 | 0.00 | 95 | 981.1 |
| 20260903022230 | 69 | 277 | 2.0 | 3.0 | 0.00 | 0.00 | 0.00 | 95 | 980.8 |
| 20260903021730 | 69 | 335 | 1.0 | 2.0 | 0.00 | 0.00 | 0.00 | 95 | 981.1 |
| 20260903021230 | 69 | 81 | 3.0 | 6.0 | 0.00 | 0.00 | 0.00 | 96 | 981.2 |
| 20260903020729 | 69 | 55 | 2.0 | 3.0 | 0.00 | 0.00 | 0.00 | 96 | 982.0 |
| 20260903020228 | 69 | 14 | 3.0 | 5.0 | 0.00 | 0.00 | 0.00 | 97 | 982.2 |
| 20260903015728 | 69 | 340 | 3.0 | 4.0 | 0.00 | 0.00 | 0.00 | 97 | 981.9 |
| 20260903014706 | 69 | 0 | 2.0 | 3.0 | 0.00 | 0.00 | 0.00 | 97 | 981.2 |
| 20260903014206 | 69 | 147 | 5.0 | 6.0 | 0.00 | 0.00 | 0.00 | 97 | 981.2 |
| 20260903013145 | 69 | 61 | 2.0 | 3.0 | 0.00 | 0.00 | 0.00 | 97 | 981.4 |
| 20260903012645 | 69 | 326 | 2.0 | 3.0 | 0.00 | 0.00 | 0.00 | 97 | 981.4 |
| 20260903012144 | 69 | 334 | 2.0 | 2.0 | 0.00 | 0.00 | 0.00 | 97 | 981.6 |
| 20260903011644 | 69 | 335 | 2.0 | 2.0 | 0.00 | 0.00 | 0.00 | 97 | 981.7 |
| 20260903010101 | 69 | 135 | 3.0 | 5.0 | 0.00 | 0.00 | 0.00 | 96 | 981.0 |
| 20260903005601 | 69 | 139 | 4.0 | 6.0 | 0.00 | 0.00 | 0.00 | 96 | 981.3 |
| 20260903005100 | 69 | 317 | 2.0 | 3.0 | 0.00 | 0.00 | 0.00 | 96 | 981.3 |
| 20260903004600 | 69 | 329 | 2.0 | 2.0 | 0.00 | 0.00 | 0.00 | 96 | 981.1 |
| 20260903004059 | 69 | 150 | 2.0 | 4.0 | 0.00 | 0.00 | 0.00 | 96 | 981.2 |
| 20260903003558 | 69 | 160 | 3.0 | 5.0 | 0.00 | 0.00 | 0.00 | 96 | 981.2 |
| 20260903003058 | 69 | 330 | 1.0 | 1.0 | 0.00 | 0.00 | 0.00 | 96 | 981.1 |
| 20260903002037 | 69 | 152 | 6.0 | 7.0 | 0.00 | 0.00 | 0.00 | 96 | 981.1 |
| 20260903000454 | 69 | 252 | 3.0 | 4.0 | 0.00 | 0.00 | 0.00 | 96 | 981.4 |
| 20260902235953 | 69 | 323 | 1.0 | 2.0 | 0.00 | 0.00 | 0.00 | 96 | 980.4 |
| 20260902235453 | 68 | 324 | 1.0 | 2.0 | 0.00 | 0.00 | 0.00 | 96 | 980.5 |
| 20260902234432 | 68 | 346 | 2.0 | 5.0 | 0.00 | 0.00 | 0.00 | 96 | 980.6 |
| 20260902233931 | 69 | 15 | 3.0 | 7.0 | 0.00 | 0.00 | 0.00 | 96 | 980.9 |
| 20260902233431 | 69 | 152 | 4.0 | 6.0 | 0.00 | 0.00 | 0.00 | 96 | 981.5 |
| 20260902232930 | 69 | 328 | 2.0 | 4.0 | 0.00 | 0.00 | 0.00 | 96 | 981.6 |
| 20260902232430 | 69 | 159 | 4.0 | 7.0 | 0.00 | 0.00 | 0.00 | 96 | 981.5 |
| 20260902231930 | 69 | 206 | 4.0 | 6.0 | 0.00 | 0.00 | 0.00 | 96 | 981.2 |
| 20260902231429 | 69 | 152 | 5.0 | 6.0 | 0.00 | 0.00 | 0.00 | 96 | 981.0 |
| 20260902230408 | 68 | 119 | 2.0 | 4.0 | 0.00 | 0.00 | 0.00 | 95 | 980.5 |
| 20260902225908 | 68 | 10 | 2.0 | 3.0 | 0.00 | 0.00 | 0.00 | 95 | 980.6 |
| 20260902225407 | 69 | 99 | 3.0 | 5.0 | 0.00 | 0.00 | 0.00 | 96 | 980.9 |
| 20260902224907 | 69 | 154 | 4.0 | 6.0 | 0.00 | 0.00 | 0.00 | 95 | 981.0 |
| 20260902224407 | 69 | 167 | 4.0 | 6.0 | 0.00 | 0.00 | 0.00 | 95 | 981.0 |
| 20260902223346 | 68 | 161 | 5.0 | 6.0 | 0.00 | 0.00 | 0.00 | 95 | 980.1 |
| 20260902222845 | 68 | 147 | 2.0 | 4.0 | 0.00 | 0.00 | 0.00 | 95 | 980.2 |
| 20260902222344 | 68 | 18 | 2.0 | 3.0 | 0.00 | 0.00 | 0.00 | 95 | 980.4 |
| 20260902221844 | 68 | 122 | 4.0 | 6.0 | 0.00 | 0.00 | 0.00 | 95 | 980.9 |
| 20260902215739 | 69 | 11 | 6.0 | 9.0 | 0.00 | 0.00 | 0.00 | 94 | 981.7 |
| 20260902215239 | 70 | 60 | 6.0 | 10.0 | 0.00 | 0.00 | 0.00 | 92 | 982.1 |
| 20260902214738 | 71 | 21 | 5.0 | 9.0 | 0.00 | 0.00 | 0.00 | 90 | 982.0 |
| 20260902214238 | 73 | 37 | 8.0 | 12.0 | 0.00 | 0.00 | 0.00 | 87 | 981.0 |
| 20260902213738 | 75 | 344 | 6.0 | 12.0 | 0.00 | 0.00 | 0.00 | 86 | 981.4 |
| 20260902213237 | 76 | 352 | 3.0 | 5.0 | 0.00 | 0.00 | 0.00 | 94 | 980.3 |
| 20260902212737 | 76 | 193 | 1.0 | 2.0 | 0.00 | 0.00 | 0.00 | 94 | 979.6 |
| 20260902212236 | 76 | 0 | 0.0 | 0.0 | 0.00 | 0.00 | 0.00 | 94 | 979.2 |
| 20260902211736 | 77 | 169 | 1.0 | 2.0 | 0.00 | 0.00 | 0.00 | 95 | 979.3 |
| 20260902210714 | 77 | 186 | 2.0 | 4.0 | 0.00 | 0.00 | 0.00 | 94 | 979.7 |
| 20260902210214 | 76 | 277 | 2.0 | 3.0 | 0.00 | 0.00 | 0.00 | 93 | 979.9 |
| 20260902205714 | 75 | 315 | 3.0 | 6.0 | 0.00 | 0.00 | 0.00 | 92 | 980.1 |
| 20260902205213 | 74 | 52 | 2.0 | 3.0 | 0.00 | 0.00 | 0.00 | 95 | 979.9 |
| 20260902204712 | 74 | 294 | 3.0 | 5.0 | 0.00 | 0.00 | 0.00 | 93 | 980.1 |
| 20260902204212 | 75 | 269 | 5.0 | 7.0 | 0.00 | 0.00 | 0.00 | 91 | 980.3 |
| 20260902203713 | 77 | 201 | 3.0 | 4.0 | 0.00 | 0.00 | 0.00 | 87 | 980.9 |
| 20260902203212 | 81 | 340 | 8.0 | 13.0 | 0.00 | 0.00 | 0.00 | 92 | 980.6 |
| 20260902201629 | 83 | 195 | 2.0 | 4.0 | 0.00 | 0.00 | 0.00 | 92 | 980.2 |
| 20260902201129 | 83 | 228 | 2.0 | 3.0 | 0.00 | 0.00 | 0.00 | 91 | 980.4 |
| 20260902200629 | 83 | 224 | 2.0 | 4.0 | 0.00 | 0.00 | 0.00 | 89 | 980.3 |
| 20260902200128 | 83 | 217 | 2.0 | 3.0 | 0.00 | 0.00 | 0.00 | 88 | 980.3 |
| 20260902195628 | 83 | 208 | 1.0 | 2.0 | 0.00 | 0.00 | 0.00 | 89 | 980.4 |
| 20260902195128 | 83 | 235 | 3.0 | 5.0 | 0.00 | 0.00 | 0.00 | 87 | 980.5 |
| 20260902194106 | 82 | 194 | 2.0 | 3.0 | 0.00 | 0.00 | 0.00 | 85 | 980.7 |
| 20260902193606 | 82 | 195 | 3.0 | 4.0 | 0.00 | 0.00 | 0.00 | 84 | 980.7 |
| 20260902193106 | 81 | 150 | 3.0 | 5.0 | 0.00 | 0.00 | 0.00 | 84 | 980.8 |
| 20260902192606 | 80 | 164 | 2.0 | 3.0 | 0.00 | 0.00 | 0.00 | 85 | 980.8 |
| 20260902192106 | 79 | 182 | 2.0 | 3.0 | 0.00 | 0.00 | 0.00 | 89 | 980.8 |
| 20260902191605 | 78 | 155 | 2.0 | 3.0 | 0.00 | 0.00 | 0.00 | 90 | 980.8 |
| 20260902191105 | 78 | 156 | 2.0 | 4.0 | 0.00 | 0.00 | 0.00 | 92 | 980.9 |
| 20260902190605 | 77 | 181 | 3.0 | 4.0 | 0.00 | 0.00 | 0.00 | 93 | 981.0 |
| 20260902190104 | 76 | 171 | 2.0 | 3.0 | 0.00 | 0.00 | 0.00 | 95 | 981.0 |
| 20260902185604 | 75 | 181 | 3.0 | 4.0 | 0.00 | 0.00 | 0.00 | 95 | 981.2 |
| 20260902185104 | 75 | 183 | 3.0 | 3.0 | 0.00 | 0.00 | 0.00 | 95 | 981.3 |
| 20260902183521 | 73 | 183 | 2.0 | 3.0 | 0.00 | 0.00 | 0.00 | 95 | 981.6 |
| 20260902183021 | 73 | 180 | 2.0 | 3.0 | 0.00 | 0.00 | 0.00 | 95 | 981.5 |
| 20260902182521 | 73 | 189 | 1.0 | 2.0 | 0.00 | 0.00 | 0.00 | 95 | 981.4 |
| 20260902182020 | 73 | 176 | 3.0 | 3.0 | 0.00 | 0.00 | 0.00 | 95 | 981.5 |
| 20260902181520 | 74 | 188 | 2.0 | 3.0 | 0.00 | 0.00 | 0.00 | 95 | 981.8 |
| 20260902181020 | 75 | 351 | 2.0 | 4.0 | 0.00 | 0.00 | 0.00 | 94 | 982.0 |
| 20260902180520 | 78 | 159 | 3.0 | 7.0 | 0.00 | 0.00 | 0.00 | 90 | 981.5 |
| 20260902180020 | 83 | 53 | 8.0 | 13.0 | 0.00 | 0.00 | 0.00 | 79 | 982.0 |
| 20260902175519 | 84 | 261 | 1.0 | 2.0 | 0.00 | 0.00 | 0.00 | 86 | 981.1 |
| 20260902175019 | 84 | 261 | 2.0 | 3.0 | 0.00 | 0.00 | 0.00 | 85 | 981.4 |
| 20260902174519 | 84 | 260 | 4.0 | 8.0 | 0.00 | 0.00 | 0.00 | 85 | 981.2 |
| 20260902174018 | 84 | 267 | 4.0 | 6.0 | 0.00 | 0.00 | 0.00 | 85 | 981.1 |
| 20260902173518 | 84 | 270 | 6.0 | 8.0 | 0.00 | 0.00 | 0.00 | 84 | 981.3 |
| 20260902171935 | 83 | 264 | 6.0 | 10.0 | 0.00 | 0.00 | 0.00 | 85 | 981.6 |
| 20260902170913 | 83 | 245 | 1.0 | 3.0 | 0.00 | 0.00 | 0.00 | 85 | 981.9 |
| 20260902170413 | 82 | 275 | 5.0 | 7.0 | 0.00 | 0.00 | 0.00 | 86 | 981.9 |
| 20260902165913 | 82 | 266 | 4.0 | 6.0 | 0.00 | 0.00 | 0.00 | 88 | 982.0 |
| 20260902164852 | 82 | 279 | 4.0 | 8.0 | 0.00 | 0.00 | 0.00 | 87 | 982.1 |
| 20260902164351 | 81 | 261 | 4.0 | 6.0 | 0.00 | 0.00 | 0.00 | 89 | 982.2 |
| 20260902163851 | 81 | 276 | 8.0 | 11.0 | 0.00 | 0.00 | 0.00 | 90 | 982.2 |
| 20260902163351 | 82 | 267 | 3.0 | 6.0 | 0.00 | 0.00 | 0.00 | 89 | 982.4 |
| 20260902162851 | 81 | 228 | 3.0 | 4.0 | 0.00 | 0.00 | 0.00 | 89 | 982.4 |
| 20260902162350 | 82 | 273 | 3.0 | 6.0 | 0.00 | 0.00 | 0.00 | 88 | 982.3 |
| 20260902161850 | 81 | 202 | 4.0 | 7.0 | 0.00 | 0.00 | 0.00 | 88 | 982.4 |
| 20260902161350 | 81 | 284 | 3.0 | 7.0 | 0.00 | 0.00 | 0.00 | 89 | 982.4 |
| 20260902160850 | 81 | 232 | 3.0 | 5.0 | 0.00 | 0.00 | 0.00 | 88 | 982.5 |
| 20260902160350 | 80 | 254 | 4.0 | 9.0 | 0.00 | 0.00 | 0.00 | 90 | 982.5 |
| 20260902155850 | 80 | 278 | 5.0 | 8.0 | 0.00 | 0.00 | 0.00 | 91 | 982.5 |
| 20260902155348 | 80 | 240 | 2.0 | 5.0 | 0.00 | 0.00 | 0.00 | 91 | 982.5 |
| 20260902154848 | 80 | 220 | 3.0 | 5.0 | 0.00 | 0.00 | 0.00 | 90 | 982.5 |
| 20260902154348 | 80 | 270 | 4.0 | 5.0 | 0.00 | 0.00 | 0.00 | 89 | 982.4 |
| 20260902152805 | 79 | 256 | 4.0 | 8.0 | 0.00 | 0.00 | 0.00 | 90 | 982.7 |
| 20260902152307 | 78 | 240 | 3.0 | 5.0 | 0.00 | 0.00 | 0.00 | 92 | 982.8 |
| 20260902151804 | 78 | 235 | 2.0 | 4.0 | 0.00 | 0.00 | 0.00 | 91 | 982.8 |
| 20260902151304 | 78 | 242 | 2.0 | 6.0 | 0.00 | 0.00 | 0.00 | 91 | 982.9 |
| 20260902150242 | 77 | 262 | 4.0 | 8.0 | 0.00 | 0.00 | 0.00 | 91 | 982.8 |
| 20260902145742 | 77 | 283 | 3.0 | 5.0 | 0.00 | 0.00 | 0.00 | 91 | 982.8 |
| 20260902145242 | 77 | 168 | 1.0 | 2.0 | 0.00 | 0.00 | 0.00 | 92 | 982.8 |
| 20260902144742 | 77 | 259 | 3.0 | 4.0 | 0.00 | 0.00 | 0.00 | 92 | 982.9 |
| 20260902144241 | 76 | 251 | 2.0 | 4.0 | 0.00 | 0.00 | 0.00 | 92 | 982.9 |
| 20260902143741 | 76 | 207 | 3.0 | 8.0 | 0.00 | 0.00 | 0.00 | 92 | 983.0 |
| 20260902143240 | 76 | 220 | 2.0 | 5.0 | 0.00 | 0.00 | 0.00 | 92 | 982.9 |
| 20260902142218 | 75 | 240 | 4.0 | 5.0 | 0.00 | 0.00 | 0.00 | 93 | 982.9 |
| 20260902141718 | 75 | 253 | 3.0 | 4.0 | 0.00 | 0.00 | 0.00 | 94 | 982.8 |
| 20260902141217 | 75 | 234 | 1.0 | 3.0 | 0.00 | 0.00 | 0.00 | 94 | 982.7 |
| 20260902140717 | 75 | 273 | 3.0 | 4.0 | 0.00 | 0.00 | 0.00 | 94 | 982.6 |
| 20260902140217 | 75 | 235 | 2.0 | 6.0 | 0.00 | 0.00 | 0.00 | 94 | 982.7 |
| 20260902135154 | 75 | 265 | 3.0 | 6.0 | 0.00 | 0.00 | 0.00 | 94 | 982.6 |
| 20260902134654 | 74 | 242 | 3.0 | 4.0 | 0.00 | 0.00 | 0.00 | 94 | 982.6 |
| 20260902134154 | 74 | 260 | 5.0 | 9.0 | 0.00 | 0.00 | 0.00 | 94 | 982.6 |
| 20260902133653 | 74 | 259 | 3.0 | 5.0 | 0.00 | 0.00 | 0.00 | 94 | 982.5 |
| 20260902133152 | 74 | 249 | 2.0 | 3.0 | 0.00 | 0.00 | 0.00 | 94 | 982.6 |
| 20260902132651 | 74 | 239 | 3.0 | 5.0 | 0.00 | 0.00 | 0.00 | 94 | 982.4 |
| 20260902131630 | 74 | 228 | 1.0 | 3.0 | 0.00 | 0.00 | 0.00 | 94 | 982.4 |
| 20260902131129 | 74 | 248 | 3.0 | 5.0 | 0.00 | 0.00 | 0.00 | 94 | 982.4 |
| 20260902130629 | 74 | 193 | 1.0 | 3.0 | 0.00 | 0.00 | 0.00 | 94 | 982.5 |
| 20260902130128 | 74 | 244 | 2.0 | 4.0 | 0.00 | 0.00 | 0.00 | 94 | 982.6 |
| 20260902124024 | 73 | 251 | 2.0 | 3.0 | 0.00 | 0.00 | 0.00 | 94 | 982.5 |
| 20260902123523 | 73 | 174 | 2.0 | 3.0 | 0.00 | 0.00 | 0.00 | 94 | 982.2 |
| 20260902123023 | 73 | 171 | 0.0 | 1.0 | 0.00 | 0.00 | 0.00 | 94 | 982.2 |
| 20260902122523 | 73 | 156 | 2.0 | 2.0 | 0.00 | 0.00 | 0.00 | 94 | 982.3 |
| 20260902122022 | 73 | 0 | 0.0 | 0.0 | 0.00 | 0.00 | 0.00 | 94 | 982.4 |
| 20260902121522 | 73 | 276 | 1.0 | 2.0 | 0.00 | 0.00 | 0.00 | 94 | 982.6 |
| 20260902121022 | 73 | 275 | 2.0 | 3.0 | 0.00 | 0.00 | 0.00 | 93 | 982.6 |
| 20260902120521 | 73 | 296 | 2.0 | 3.0 | 0.00 | 0.00 | 0.00 | 93 | 982.6 |
| 20260902120021 | 73 | 256 | 2.0 | 3.0 | 0.00 | 0.00 | 0.00 | 94 | 982.6 |
| 20260902115520 | 72 | 267 | 2.0 | 3.0 | 0.00 | 0.00 | 0.00 | 94 | 982.6 |
| 20260902115020 | 72 | 236 | 1.0 | 2.0 | 0.00 | 0.00 | 0.00 | 94 | 982.6 |
| 20260902113437 | 72 | 0 | 0.0 | 0.0 | 0.00 | 0.00 | 0.00 | 94 | 982.4 |
| 20260902112937 | 72 | 0 | 0.0 | 0.0 | 0.00 | 0.00 | 0.00 | 94 | 982.5 |
| 20260902112436 | 72 | 0 | 0.0 | 0.0 | 0.00 | 0.00 | 0.00 | 94 | 982.4 |
| 20260902111935 | 72 | 255 | 1.0 | 2.0 | 0.00 | 0.00 | 0.00 | 94 | 982.4 |
| 20260902111435 | 71 | 247 | 2.0 | 2.0 | 0.00 | 0.00 | 0.00 | 94 | 982.4 |
| 20260902110413 | 71 | 224 | 1.0 | 2.0 | 0.00 | 0.00 | 0.00 | 94 | 982.0 |
| 20260902105352 | 72 | 0 | 0.0 | 0.0 | 0.00 | 0.00 | 0.00 | 94 | 981.9 |
| 20260902104851 | 72 | 0 | 0.0 | 0.0 | 0.00 | 0.00 | 0.00 | 93 | 981.8 |
| 20260902103309 | 72 | 0 | 0.0 | 0.0 | 0.00 | 0.00 | 0.00 | 93 | 981.6 |
| 20260902102809 | 72 | 0 | 0.0 | 0.0 | 0.00 | 0.00 | 0.00 | 93 | 981.6 |
| 20260902101747 | 72 | 146 | 1.0 | 2.0 | 0.00 | 0.00 | 0.00 | 93 | 981.5 |
| 20260902101247 | 73 | 261 | 2.0 | 4.0 | 0.00 | 0.00 | 0.00 | 92 | 981.6 |
| 20260902100747 | 73 | 274 | 2.0 | 3.0 | 0.00 | 0.00 | 0.00 | 92 | 981.5 |
| 20260902100247 | 73 | 256 | 4.0 | 5.0 | 0.00 | 0.00 | 0.00 | 92 | 981.5 |
| 20260902095746 | 74 | 261 | 3.0 | 5.0 | 0.00 | 0.00 | 0.00 | 92 | 981.6 |
| 20260902094725 | 74 | 257 | 4.0 | 7.0 | 0.00 | 0.00 | 0.00 | 93 | 981.5 |
| 20260902094225 | 75 | 239 | 3.0 | 5.0 | 0.00 | 0.00 | 0.00 | 93 | 981.6 |
| 20260902093725 | 75 | 253 | 3.0 | 6.0 | 0.00 | 0.00 | 0.00 | 93 | 981.5 |
| 20260902093224 | 75 | 242 | 2.0 | 5.0 | 0.00 | 0.00 | 0.00 | 93 | 981.2 |
| 20260902092724 | 75 | 237 | 2.0 | 3.0 | 0.00 | 0.00 | 0.00 | 92 | 981.1 |
| 20260902092224 | 75 | 242 | 3.0 | 5.0 | 0.00 | 0.00 | 0.00 | 92 | 981.0 |
| 20260902091724 | 75 | 243 | 1.0 | 2.0 | 0.00 | 0.00 | 0.00 | 92 | 981.1 |
| 20260902091223 | 74 | 246 | 5.0 | 9.0 | 0.00 | 0.00 | 0.00 | 94 | 981.3 |
| 20260902090202 | 73 | 247 | 3.0 | 5.0 | 0.00 | 0.00 | 0.00 | 96 | 981.8 |
| 20260902085702 | 73 | 0 | 0.0 | 0.0 | 0.00 | 0.00 | 0.00 | 97 | 981.5 |
| 20260902085202 | 73 | 0 | 0.0 | 0.0 | 0.00 | 0.00 | 0.00 | 97 | 981.6 |
| 20260902084702 | 73 | 0 | 0.0 | 0.0 | 0.00 | 0.00 | 0.00 | 97 | 981.6 |
| 20260902083640 | 73 | 0 | 0.0 | 0.0 | 0.00 | 0.00 | 0.00 | 97 | 981.3 |
| 20260902083140 | 73 | 145 | 2.0 | 2.0 | 0.00 | 0.00 | 0.00 | 97 | 981.4 |
| 20260902082639 | 73 | 0 | 0.0 | 0.0 | 0.00 | 0.00 | 0.00 | 97 | 981.5 |
| 20260902082139 | 73 | 0 | 0.0 | 0.0 | 0.00 | 0.00 | 0.00 | 97 | 981.6 |
| 20260902081639 | 73 | 169 | 0.0 | 1.0 | 0.00 | 0.00 | 0.00 | 97 | 981.7 |
| 20260902081139 | 73 | 0 | 0.0 | 0.0 | 0.00 | 0.00 | 0.00 | 97 | 981.8 |
| 20260902080639 | 73 | 0 | 0.0 | 0.0 | 0.00 | 0.00 | 0.00 | 97 | 981.7 |
| 20260902080138 | 73 | 0 | 0.0 | 0.0 | 0.00 | 0.00 | 0.00 | 97 | 981.6 |
| 20260902075638 | 73 | 158 | 1.0 | 2.0 | 0.00 | 0.00 | 0.00 | 97 | 981.7 |
| 20260902075138 | 73 | 0 | 0.0 | 0.0 | 0.00 | 0.00 | 0.00 | 97 | 981.8 |
| 20260902074116 | 73 | 0 | 0.0 | 0.0 | 0.00 | 0.00 | 0.00 | 97 | 981.8 |
| 20260902073616 | 73 | 0 | 0.0 | 0.0 | 0.00 | 0.00 | 0.00 | 97 | 981.8 |
| 20260902073116 | 73 | 0 | 0.0 | 0.0 | 0.00 | 0.00 | 0.00 | 97 | 981.7 |
| 20260902072616 | 73 | 0 | 0.0 | 0.0 | 0.00 | 0.00 | 0.00 | 97 | 981.7 |
| 20260902072116 | 73 | 0 | 0.0 | 0.0 | 0.00 | 0.00 | 0.00 | 97 | 981.7 |
| 20260902071054 | 73 | 0 | 0.0 | 0.0 | 0.00 | 0.00 | 0.00 | 97 | 981.7 |
| 20260902070554 | 73 | 0 | 0.0 | 0.0 | 0.00 | 0.00 | 0.00 | 97 | 981.7 |
| 20260902070054 | 73 | 0 | 0.0 | 0.0 | 0.00 | 0.00 | 0.00 | 97 | 981.8 |
| 20260902065032 | 72 | 123 | 1.0 | 2.0 | 0.00 | 0.00 | 0.00 | 97 | 981.9 |
| 20260902064532 | 72 | 0 | 0.0 | 0.0 | 0.00 | 0.00 | 0.00 | 97 | 981.9 |
| 20260902064032 | 73 | 0 | 0.0 | 0.0 | 0.00 | 0.00 | 0.00 | 97 | 981.8 |
| 20260902063532 | 73 | 0 | 0.0 | 0.0 | 0.00 | 0.00 | 0.00 | 97 | 982.0 |
| 20260902063031 | 73 | 0 | 0.0 | 0.0 | 0.00 | 0.00 | 0.00 | 97 | 982.1 |
| 20260902062531 | 73 | 0 | 0.0 | 0.0 | 0.00 | 0.00 | 0.00 | 97 | 982.0 |
| 20260902062031 | 73 | 134 | 1.0 | 2.0 | 0.00 | 0.00 | 0.00 | 97 | 982.0 |
| 20260902061009 | 73 | 0 | 0.0 | 0.0 | 0.00 | 0.00 | 0.00 | 96 | 982.1 |
| 20260902060509 | 73 | 0 | 0.0 | 0.0 | 0.00 | 0.00 | 0.00 | 96 | 982.2 |
| 20260902060009 | 73 | 135 | 1.0 | 2.0 | 0.00 | 0.00 | 0.00 | 96 | 982.1 |